FW9096 Weather Reports


time (UTC)temp
C
wind
direction
speed
KPH
gust
KPH
rain 1hr
cm
rain 24hr
cm
rain mn
cm
humidity
%
barometer
mb
20260510204556 21 261 0.0 1.6 0.00 0.30 0.05 50 1019.3
20260510204050 21 261 0.0 1.6 0.00 0.30 0.05 49 1019.3
20260510203550 21 260 0.0 1.6 0.00 0.30 0.05 43 1019.1
20260510203050 21 260 0.0 3.2 0.00 0.30 0.05 48 1019.2
20260510202552 22 260 0.0 3.2 0.00 0.30 0.05 47 1019.1
20260510202049 22 263 0.0 6.4 0.00 0.30 0.05 47 1019.1
20260510201552 22 146 0.0 6.4 0.00 0.30 0.05 42 1019.0
20260510201050 22 192 0.0 8.0 0.00 0.30 0.05 45 1019.0
20260510200549 22 179 0.0 8.0 0.00 0.30 0.05 49 1019.1
20260510200049 22 30 0.0 4.8 0.00 0.30 0.05 40 1019.2
20260510195548 22 123 0.0 4.8 0.00 0.30 0.05 41 1019.1
20260510195047 22 145 0.0 3.2 0.00 0.30 0.05 48 1019.1
20260510194546 21 124 0.0 3.2 0.00 0.30 0.05 47 1019.2
20260510194045 21 140 0.0 3.2 0.00 0.30 0.05 43 1019.2
20260510193544 21 97 0.0 3.2 0.00 0.30 0.05 51 1019.2
20260510193045 21 355 0.0 6.4 0.00 0.30 0.05 46 1019.1
20260510192541 20 355 0.0 6.4 0.00 0.30 0.05 50 1019.2
20260510192040 20 159 0.0 6.4 0.00 0.30 0.05 48 1019.2
20260510191541 20 154 0.0 6.4 0.00 0.30 0.05 57 1019.2
20260510191039 19 159 0.0 4.8 0.00 0.30 0.05 60 1019.2
20260510190537 18 109 0.0 3.2 0.00 0.30 0.05 52 1019.2
20260510190039 18 92 0.0 1.6 0.00 0.30 0.05 60 1019.1
20260510185537 18 92 0.0 1.6 0.00 0.30 0.05 59 1019.1
20260510185038 18 92 0.0 1.6 0.00 0.30 0.05 64 1019.1
20260510184540 18 104 0.0 1.6 0.00 0.30 0.05 51 1019.0
20260510184037 18 105 0.0 4.8 0.00 0.30 0.05 59 1019.1
20260510183536 19 105 0.0 4.8 0.00 0.30 0.05 64 1019.0
20260510183037 19 355 0.0 6.4 0.00 0.30 0.05 46 1018.9
20260510182537 19 13 0.0 6.4 0.00 0.30 0.05 54 1018.9
20260510182035 19 130 0.0 4.8 0.00 0.30 0.05 55 1018.8
20260510181536 18 248 0.0 3.2 0.00 0.30 0.05 47 1018.8
20260510181033 18 128 0.0 3.2 0.00 0.30 0.05 53 1018.7
20260510180532 18 144 0.0 3.2 0.00 0.30 0.05 60 1018.8
20260510180041 18 29 0.0 1.6 0.00 0.30 0.05 62 1018.8
20260510175530 17 28 0.0 4.8 0.00 0.30 0.05 54 1018.9
20260510175027 17 355 0.0 4.8 0.00 0.30 0.05 63 1018.9
20260510174526 17 355 0.0 0.0 0.00 0.30 0.05 64 1018.9
20260510174026 17 355 0.0 0.0 0.00 0.30 0.05 65 1019.0
20260510173525 17 355 0.0 0.0 0.00 0.30 0.05 66 1019.2
20260510173032 16 355 0.0 0.0 0.00 0.30 0.05 68 1019.1
20260510172527 16 355 0.0 1.6 0.00 0.30 0.05 67 1019.1
20260510172025 17 321 0.0 0.0 0.00 0.30 0.05 65 1019.2
20260510171527 17 319 0.0 1.6 0.00 0.30 0.05 66 1019.3
20260510171024 17 317 0.0 1.6 0.00 0.30 0.05 64 1019.3
20260510170524 17 9 0.0 3.2 0.00 0.30 0.05 68 1019.3
20260510170023 17 5 0.0 3.2 0.00 0.30 0.05 59 1019.3
20260510165523 17 360 0.0 0.0 0.00 0.30 0.05 67 1019.4
20260510165024 16 11 0.0 0.0 0.00 0.30 0.05 67 1019.3
20260510164521 16 5 0.0 1.6 0.00 0.30 0.05 68 1019.5
20260510164021 16 5 0.0 1.6 0.00 0.30 0.05 71 1019.5
20260510163520 16 92 0.0 0.0 0.00 0.30 0.05 74 1019.4
20260510163021 16 94 0.0 0.0 0.00 0.30 0.05 72 1019.3
20260510162521 16 94 0.0 0.0 0.00 0.30 0.05 71 1019.4
20260510162020 16 84 0.0 0.0 0.00 0.30 0.05 71 1019.4
20260510161519 16 84 0.0 0.0 0.00 0.30 0.05 68 1019.3
20260510161020 16 84 0.0 0.0 0.00 0.30 0.05 70 1019.4
20260510160520 16 82 0.0 0.0 0.00 0.30 0.05 67 1019.4
20260510160019 16 82 0.0 0.0 0.00 0.30 0.05 68 1019.6
20260510155517 16 82 0.0 3.2 0.00 0.30 0.05 71 1019.6
20260510155017 16 90 0.0 3.2 0.00 0.30 0.05 63 1019.6
20260510154516 15 163 0.0 4.8 0.00 0.30 0.05 76 1019.6
20260510154015 15 162 0.0 4.8 0.00 0.30 0.05 71 1019.5
20260510153519 14 112 0.0 3.2 0.00 0.30 0.05 75 1019.4
20260510153031 13 53 0.0 1.6 0.00 0.30 0.05 75 1019.3
20260510152513 13 61 0.0 1.6 0.00 0.30 0.05 78 1019.3
20260510152012 13 62 0.0 1.6 0.00 0.30 0.05 78 1019.1
20260510151517 13 107 0.0 1.6 0.00 0.30 0.05 77 1019.0
20260510151011 13 80 0.0 0.0 0.00 0.30 0.05 83 1019.0
20260510150513 13 80 0.0 1.6 0.00 0.30 0.05 81 1018.9
20260510150011 13 41 0.0 6.4 0.00 0.30 0.05 81 1018.9
20260510145511 13 38 0.0 6.4 0.00 0.30 0.05 79 1018.8
20260510145009 13 175 0.0 0.0 0.00 0.30 0.05 84 1018.7
20260510144510 13 175 0.0 0.0 0.00 0.30 0.05 85 1018.7
20260510144008 13 175 0.0 0.0 0.00 0.30 0.05 84 1018.7
20260510143510 13 175 0.0 4.8 0.00 0.30 0.05 85 1018.7
20260510143007 13 175 0.0 6.4 0.00 0.30 0.05 86 1018.6
20260510142508 13 111 0.0 6.4 0.00 0.30 0.05 86 1018.4
20260510142005 13 76 0.0 3.2 0.00 0.30 0.05 91 1018.3
20260510141504 12 79 0.0 1.6 0.03 0.30 0.05 91 1018.3
20260510141004 12 76 0.0 1.6 0.03 0.30 0.05 90 1018.1
20260510140502 12 75 0.0 3.2 0.03 0.30 0.05 91 1017.9
20260510140002 12 131 0.0 3.2 0.03 0.30 0.05 91 1017.7
20260510135503 12 91 0.0 3.2 0.03 0.30 0.05 92 1017.7
20260510135002 11 93 0.0 0.0 0.03 0.30 0.05 92 1017.8
20260510134502 11 99 0.0 0.0 0.03 0.30 0.05 92 1017.8
20260510134001 11 99 0.0 1.6 0.03 0.30 0.05 92 1017.8
20260510133501 11 98 0.0 1.6 0.03 0.30 0.05 92 1017.8
20260510133002 11 98 0.0 1.6 0.03 0.30 0.05 92 1017.8
20260510132501 11 98 0.0 1.6 0.03 0.30 0.05 93 1017.8
20260510132101 11 98 0.0 0.0 0.03 0.30 0.05 92 1017.7
20260510131600 11 98 0.0 0.0 0.00 0.28 0.03 92 1017.9
20260510131059 11 98 0.0 0.0 0.00 0.28 0.03 92 1017.8
20260510130559 11 98 0.0 0.0 0.00 0.28 0.03 92 1017.6
20260510130059 11 98 0.0 0.0 0.00 0.28 0.03 92 1017.7
20260510125601 11 98 0.0 0.0 0.00 0.28 0.03 92 1017.7
20260510125058 11 98 0.0 0.0 0.00 0.28 0.03 92 1017.6
20260510124610 10 98 0.0 0.0 0.00 0.28 0.03 92 1017.5
20260510124058 10 98 0.0 0.0 0.00 0.28 0.03 92 1017.4
20260510123556 10 98 0.0 0.0 0.00 0.28 0.03 92 1017.3
20260510123056 10 98 0.0 0.0 0.00 0.28 0.03 92 1017.1
20260510122556 10 98 0.0 0.0 0.00 0.28 0.03 91 1017.0
20260510122053 10 98 0.0 0.0 0.00 0.28 0.03 91 1016.9
20260510121552 10 98 0.0 0.0 0.00 0.28 0.03 91 1016.8
20260510121052 10 98 0.0 0.0 0.00 0.28 0.03 91 1016.8
20260510120551 10 98 0.0 0.0 0.00 0.28 0.03 91 1016.7
20260510120050 10 98 0.0 0.0 0.00 0.28 0.03 91 1016.6
20260510115550 10 98 0.0 0.0 0.00 0.28 0.03 91 1016.6
20260510115049 11 98 0.0 0.0 0.00 0.28 0.03 91 1016.4
20260510114550 11 98 0.0 0.0 0.00 0.28 0.03 91 1016.4
20260510114051 11 98 0.0 0.0 0.00 0.28 0.03 91 1016.2
20260510113547 11 98 0.0 0.0 0.00 0.28 0.03 91 1016.1
20260510113046 11 98 0.0 0.0 0.00 0.28 0.03 91 1015.9
20260510112545 11 98 0.0 0.0 0.00 0.28 0.03 91 1016.0
20260510112044 11 98 0.0 0.0 0.00 0.28 0.03 91 1015.8
20260510111543 11 98 0.0 0.0 0.00 0.28 0.03 91 1015.6
20260510111042 11 98 0.0 0.0 0.00 0.28 0.03 91 1015.6
20260510110541 11 98 0.0 0.0 0.00 0.28 0.03 91 1015.5
20260510110043 11 98 0.0 0.0 0.00 0.28 0.03 91 1015.4
20260510105540 11 98 0.0 0.0 0.00 0.28 0.03 91 1015.4
20260510105039 11 98 0.0 0.0 0.00 0.28 0.03 91 1015.2
20260510104538 11 98 0.0 0.0 0.00 0.28 0.03 91 1015.1
20260510104037 11 98 0.0 0.0 0.00 0.28 0.03 91 1015.0
20260510103536 11 98 0.0 0.0 0.00 0.28 0.03 91 1014.8
20260510103036 11 98 0.0 0.0 0.00 0.28 0.03 91 1014.8
20260510102535 11 98 0.0 0.0 0.00 0.28 0.03 91 1014.8
20260510102034 11 98 0.0 0.0 0.00 0.28 0.03 91 1014.8
20260510101537 12 98 0.0 0.0 0.00 0.28 0.03 91 1014.6
20260510101034 12 98 0.0 0.0 0.00 0.28 0.03 91 1014.5
20260510100532 12 98 0.0 0.0 0.00 0.28 0.03 91 1014.5
20260510100032 12 98 0.0 0.0 0.00 0.28 0.03 91 1014.3
20260510095532 12 98 0.0 0.0 0.00 0.28 0.03 91 1014.3
20260510095030 12 98 0.0 0.0 0.00 0.28 0.03 91 1014.1
20260510094531 12 98 0.0 0.0 0.00 0.28 0.03 90 1014.1
20260510094030 12 98 0.0 0.0 0.00 0.28 0.03 90 1014.2
20260510093528 12 98 0.0 0.0 0.00 0.28 0.03 91 1014.1
20260510093032 12 98 0.0 0.0 0.00 0.28 0.03 91 1014.1
20260510092527 12 98 0.0 0.0 0.00 0.28 0.03 91 1014.0
20260510092026 12 98 0.0 0.0 0.00 0.28 0.03 91 1014.0
20260510091533 12 98 0.0 0.0 0.00 0.28 0.03 91 1014.0
20260510091025 12 98 0.0 0.0 0.00 0.28 0.03 91 1014.0
20260510090525 12 98 0.0 0.0 0.00 0.28 0.03 91 1013.9
20260510090029 12 98 0.0 0.0 0.00 0.28 0.03 91 1013.8
20260510085524 13 98 0.0 0.0 0.00 0.28 0.03 91 1013.7
20260510085022 13 98 0.0 0.0 0.00 0.28 0.03 90 1013.6
20260510084521 13 98 0.0 0.0 0.00 0.28 0.03 90 1013.5
20260510084020 13 98 0.0 0.0 0.00 0.28 0.03 90 1013.4
20260510083520 13 98 0.0 0.0 0.00 0.28 0.03 90 1013.3
20260510083021 13 98 0.0 0.0 0.00 0.28 0.03 90 1013.2
20260510082516 13 98 0.0 0.0 0.00 0.28 0.03 90 1013.0
20260510082016 13 98 0.0 0.0 0.00 0.28 0.03 90 1012.8
20260510081515 13 98 0.0 0.0 0.00 0.28 0.03 90 1012.8
20260510081016 13 98 0.0 0.0 0.00 0.28 0.03 90 1012.8
20260510080514 13 98 0.0 0.0 0.00 0.28 0.03 90 1012.7
20260510080013 13 98 0.0 0.0 0.00 0.28 0.03 90 1012.7
20260510075515 13 98 0.0 0.0 0.00 0.28 0.03 90 1012.6
20260510075011 14 98 0.0 0.0 0.00 0.28 0.03 91 1012.5
20260510074510 14 98 0.0 0.0 0.00 0.28 0.03 90 1012.3
20260510074014 14 98 0.0 0.0 0.00 0.28 0.03 91 1012.2
20260510073512 14 98 0.0 0.0 0.00 0.28 0.03 91 1012.3
20260510073011 14 98 0.0 0.0 0.00 0.28 0.03 91 1012.2
20260510072508 14 98 0.0 0.0 0.00 0.28 0.03 91 1012.3
20260510072012 14 98 0.0 0.0 0.00 0.28 0.03 91 1012.2
20260510071508 14 98 0.0 0.0 0.00 0.28 0.03 91 1012.2
20260510071006 15 98 0.0 0.0 0.00 0.28 0.03 91 1012.2
20260510070506 15 98 0.0 0.0 0.00 0.28 0.03 91 1012.1
20260510070009 15 98 0.0 0.0 0.00 0.30 0.03 91 1012.2
20260510065505 15 98 0.0 0.0 0.00 0.30 0.03 91 1012.3
20260510065008 15 98 0.0 0.0 0.00 0.30 0.03 91 1012.2
20260510064517 15 98 0.0 0.0 0.00 0.30 0.03 91 1012.2
20260510064004 15 98 0.0 0.0 0.00 0.30 0.03 91 1012.3
20260510063503 15 98 0.0 0.0 0.00 0.30 0.03 91 1012.3
20260510063003 15 98 0.0 0.0 0.00 0.30 0.03 91 1012.2
20260510062502 15 98 0.0 0.0 0.00 0.30 0.03 91 1012.2
20260510062002 15 98 0.0 0.0 0.00 0.30 0.03 91 1012.0
20260510061508 15 98 0.0 0.0 0.00 0.30 0.03 91 1011.9
20260510061001 15 98 0.0 0.0 0.00 0.30 0.03 91 1011.9
20260510060502 15 98 0.0 0.0 0.03 0.30 0.03 91 1012.0
20260510060100 15 98 0.0 0.0 0.03 0.30 0.03 91 1012.1
20260510055600 15 98 0.0 0.0 0.03 0.30 0.03 91 1012.2
20260510055101 15 98 0.0 0.0 0.03 0.30 0.03 90 1012.1
20260510054559 15 98 0.0 0.0 0.03 0.30 0.03 90 1012.1
20260510054058 15 98 0.0 0.0 0.03 0.30 0.03 90 1012.2
20260510053557 15 98 0.0 0.0 0.03 0.30 0.03 90 1012.0
20260510053056 15 98 0.0 0.0 0.03 0.30 0.03 90 1011.4
20260510052556 15 98 0.0 1.6 0.03 0.30 0.03 90 1011.3
20260510052055 15 98 0.0 0.0 0.03 0.30 0.03 91 1011.2
20260510051559 15 98 0.0 0.0 0.03 0.30 0.03 90 1011.2
20260510051057 15 98 0.0 1.6 0.05 0.30 0.03 90 1011.4
20260510050554 15 98 0.0 1.6 0.03 0.28 0.00 90 1011.0
20260510050055 15 108 0.0 1.6 0.05 0.28 0.00 90 1011.3
20260510045553 15 105 0.0 1.6 0.08 0.28 0.28 90 1011.5
20260510045054 15 106 0.0 3.2 0.08 0.28 0.28 90 1011.4
20260510044552 15 106 0.0 3.2 0.10 0.28 0.28 89 1010.8
20260510044053 15 107 0.0 0.0 0.10 0.28 0.28 89 1010.6
20260510043557 15 107 0.0 0.0 0.10 0.28 0.28 89 1010.5
20260510043053 16 107 0.0 1.6 0.10 0.28 0.28 89 1010.6
20260510042551 16 107 0.0 1.6 0.13 0.28 0.28 90 1011.0
20260510042052 16 107 0.0 0.0 0.15 0.28 0.28 90 1011.2
20260510041553 16 107 0.0 1.6 0.15 0.28 0.28 89 1011.1
20260510041052 16 107 0.0 1.6 0.15 0.25 0.25 89 1011.1
20260510040554 16 109 0.0 1.6 0.18 0.25 0.25 89 1011.5
20260510040051 16 109 0.0 0.0 0.15 0.23 0.23 88 1011.5
20260510035552 16 109 0.0 0.0 0.15 0.23 0.20 88 1011.6
20260510035050 16 109 0.0 0.0 0.18 0.23 0.20 88 1011.3
20260510034551 16 109 0.0 1.6 0.15 0.20 0.18 87 1011.1
20260510034051 16 109 0.0 1.6 0.15 0.20 0.18 87 1010.8
20260510033550 16 61 0.0 0.0 0.15 0.20 0.18 86 1011.1
20260510033101 16 61 0.0 0.0 0.15 0.20 0.18 86 1011.1
20260510032549 16 61 0.0 1.6 0.13 0.18 0.15 86 1011.3
20260510032049 16 62 0.0 3.2 0.10 0.15 0.13 85 1011.4
20260510031549 16 263 0.0 3.2 0.10 0.15 0.13 84 1011.3
20260510031048 17 105 0.0 14.5 0.08 0.13 0.10 83 1011.2
20260510030548 17 177 0.0 14.5 0.05 0.10 0.08 83 1011.3
20260510030048 17 309 0.0 6.4 0.05 0.10 0.08 81 1011.2
20260510025547 17 110 0.0 6.4 0.03 0.46 0.05 80 1011.2
20260510025046 17 325 0.0 4.8 0.00 0.43 0.03 77 1010.9
20260510024545 17 312 0.0 4.8 0.00 0.43 0.03 76 1010.6
20260510024043 17 116 0.0 0.0 0.00 0.43 0.03 77 1009.1
20260510023543 17 116 0.0 0.0 0.00 0.43 0.03 76 1008.7
20260510023044 17 116 0.0 0.0 0.00 0.43 0.03 77 1008.6
20260510022543 17 116 0.0 0.0 0.00 0.43 0.03 77 1008.5
20260510022043 17 116 0.0 0.0 0.00 0.43 0.03 76 1008.5
20260510021546 17 116 0.0 0.0 0.00 0.43 0.03 75 1008.4
20260510021044 17 116 0.0 0.0 0.00 0.43 0.03 73 1008.3
20260510020543 17 116 0.0 0.0 0.00 0.43 0.03 75 1008.3
20260510020043 18 116 0.0 0.0 0.00 0.43 0.03 74 1008.2
20260510015543 18 116 0.0 0.0 0.00 0.81 0.03 72 1008.2
20260510015042 18 116 0.0 0.0 0.00 0.81 0.03 73 1008.1
20260510014544 18 116 0.0 0.0 0.00 0.81 0.03 73 1008.0
20260510014042 18 116 0.0 0.0 0.00 0.81 0.03 72 1007.8
20260510013542 19 116 0.0 0.0 0.00 0.81 0.03 71 1007.8
20260510013042 19 116 0.0 0.0 0.00 0.81 0.03 71 1007.7
20260510012543 20 116 0.0 0.0 0.00 0.81 0.03 70 1007.6
20260510012044 20 116 0.0 0.0 0.00 0.81 0.03 69 1007.6
20260510011541 20 116 0.0 0.0 0.00 0.81 0.03 69 1007.7
20260510011042 20 116 0.0 0.0 0.00 0.81 0.03 67 1007.7
20260510010541 21 116 0.0 0.0 0.00 0.81 0.03 67 1007.8
20260509233533 25 115 0.0 1.6 0.00 0.86 0.03 50 1007.2
20260509233036 25 117 0.0 0.0 0.00 0.86 0.03 46 1007.3
20260509232535 25 117 0.0 1.6 0.00 0.86 0.03 52 1007.3
20260509232033 25 117 0.0 1.6 0.00 0.86 0.03 49 1007.2
20260509231534 25 113 0.0 8.0 0.00 0.86 0.03 47 1007.3
20260509231032 26 115 0.0 8.0 0.00 0.86 0.03 43 1007.2
20260509230533 26 81 0.0 3.2 0.00 0.86 0.03 53 1007.2
20260509230032 26 53 0.0 1.6 0.00 0.86 0.03 44 1007.3
20260509225535 26 336 0.0 1.6 0.00 0.86 0.03 44 1007.1
20260509225032 26 336 0.0 3.2 0.00 0.86 0.03 44 1007.1
20260509224544 26 340 0.0 3.2 0.00 0.86 0.03 42 1007.1
20260509224031 26 182 0.0 3.2 0.00 0.86 0.03 43 1007.2
20260509223531 26 288 0.0 3.2 0.00 0.86 0.03 44 1007.2
20260509223031 26 18 0.0 3.2 0.00 0.86 0.03 47 1007.2
20260509222530 26 323 0.0 1.6 0.00 0.86 0.03 42 1007.1
20260509222035 26 321 0.0 1.6 0.00 0.86 0.03 40 1007.2
20260509221532 26 306 0.0 1.6 0.00 0.86 0.03 41 1007.2
20260509221030 26 306 0.0 4.8 0.00 0.86 0.03 40 1007.2
20260509220529 26 309 0.0 4.8 0.00 0.86 0.03 40 1007.2
20260509220029 27 171 0.0 1.6 0.00 0.86 0.03 41 1007.2
20260509215529 27 171 0.0 6.4 0.00 0.86 0.03 49 1007.2
20260509215029 27 171 0.0 6.4 0.00 0.86 0.03 40 1007.2
20260509214528 27 296 0.0 3.2 0.00 0.86 0.03 42 1007.3
20260509214031 27 157 0.0 3.2 0.00 0.86 0.03 43 1007.2
20260509213527 27 157 0.0 4.8 0.00 0.86 0.03 41 1007.2
20260509213027 27 110 1.6 4.8 0.00 0.86 0.03 38 1007.2
20260509212526 27 124 0.0 3.2 0.00 0.86 0.03 43 1007.3
20260509212030 27 104 0.0 3.2 0.00 0.86 0.03 39 1007.4
20260509211527 28 175 0.0 3.2 0.00 0.86 0.03 38 1007.3
20260509211028 28 174 0.0 6.4 0.00 0.86 0.03 39 1007.4
20260509210526 28 117 1.6 6.4 0.00 0.86 0.03 37 1007.5
20260509210026 28 105 0.0 3.2 0.00 0.86 0.03 39 1007.5
20260509205525 28 67 0.0 1.6 0.00 0.86 0.03 42 1007.5
20260509205025 28 65 0.0 4.8 0.00 0.86 0.03 42 1007.6